| time (UTC) | temp C | wind direction | speed KPH | gust KPH | rain 1hr cm | rain 24hr cm | rain mn cm | humidity % | barometer mb |
| 20260503203541 | -17 | 0.0 | 0.0 | 0.00 | 0.00 | 0.00 | 1011.9 | ||
| 20260503202540 | 33 | 248 | 3.2 | 3.2 | 0.00 | 0.00 | 0.00 | 33 | 1012.0 |
| 20260503201538 | 33 | 174 | 3.2 | 3.2 | 0.00 | 0.00 | 0.00 | 34 | 1012.1 |
| 20260503200537 | 32 | 229 | 0.0 | 3.2 | 0.00 | 0.00 | 0.00 | 34 | 1012.2 |
| 20260503195536 | 32 | 176 | 1.6 | 4.8 | 0.00 | 0.00 | 0.00 | 34 | 1012.2 |
| 20260503194535 | 32 | 176 | 1.6 | 6.4 | 0.00 | 0.00 | 0.00 | 34 | 1012.4 |
| 20260503193534 | 31 | 157 | 3.2 | 3.2 | 0.00 | 0.00 | 0.00 | 35 | 1012.4 |
| 20260503192532 | 31 | 157 | 1.6 | 3.2 | 0.00 | 0.00 | 0.00 | 35 | 1012.6 |
| 20260503191531 | 30 | 201 | 3.2 | 4.8 | 0.00 | 0.00 | 0.00 | 36 | 1012.7 |
| 20260503190549 | 29 | 0.0 | 1.6 | 0.00 | 0.00 | 0.00 | 36 | 1012.7 | |
| 20260503185528 | -17 | 0.0 | 0.0 | 0.00 | 0.00 | 0.00 | 1012.8 | ||
| 20260503184526 | -17 | 0.0 | 0.0 | 0.00 | 0.00 | 0.00 | 1012.9 | ||
| 20260503183545 | -17 | 0.0 | 0.0 | 0.00 | 0.00 | 0.00 | 1013.1 | ||
| 20260503182524 | -17 | 0.0 | 0.0 | 0.00 | 0.00 | 0.00 | 1013.2 | ||
| 20260503181542 | -17 | 0.0 | 0.0 | 0.00 | 0.00 | 0.00 | 1013.3 | ||
| 20260503180521 | -17 | 0.0 | 0.0 | 0.00 | 0.00 | 0.00 | 1013.4 | ||
| 20260503175521 | 24 | 0.0 | 0.0 | 0.00 | 0.00 | 0.00 | 47 | 1013.5 | |
| 20260503174539 | 23 | 133 | 1.6 | 3.2 | 0.00 | 0.00 | 0.00 | 50 | 1013.5 |
| 20260503173517 | 22 | 0.0 | 0.0 | 0.00 | 0.00 | 0.00 | 51 | 1013.6 | |
| 20260503172516 | 21 | 308 | 4.8 | 8.0 | 0.00 | 0.00 | 0.00 | 53 | 1013.6 |
| 20260503171615 | 21 | 177 | 3.2 | 6.4 | 0.00 | 0.00 | 0.00 | 54 | 1013.6 |
| 20260503170614 | 21 | 165 | 4.8 | 11.3 | 0.00 | 0.00 | 0.00 | 58 | 1013.6 |
| 20260503150618 | 14 | 154 | 3.2 | 4.8 | 0.00 | 0.00 | 0.00 | 84 | 1013.9 |
| 20260503130603 | 12 | 66 | 3.2 | 4.8 | 0.00 | 0.00 | 0.00 | 88 | 1013.5 |
| 20260503110528 | 13 | 0.0 | 0.0 | 0.00 | 0.00 | 0.00 | 84 | 1013.9 | |
| 20260503081606 | 13 | 0.0 | 0.0 | 0.00 | 0.00 | 0.00 | 92 | 1014.5 | |
| 20260503080605 | 13 | 0.0 | 0.0 | 0.00 | 0.00 | 0.00 | 91 | 1014.4 | |
| 20260503072600 | 13 | 0.0 | 0.0 | 0.00 | 0.00 | 0.00 | 89 | 1014.4 | |
| 20260503071559 | 13 | 0.0 | 0.0 | 0.00 | 0.00 | 0.00 | 88 | 1014.6 | |
| 20260503070558 | 13 | 0.0 | 0.0 | 0.00 | 0.00 | 0.00 | 88 | 1014.6 | |
| 20260503054547 | 15 | 0.0 | 0.0 | 0.00 | 0.00 | 0.00 | 83 | 1014.3 | |
| 20260503053545 | 15 | 0.0 | 0.0 | 0.00 | 0.00 | 0.00 | 82 | 1014.4 | |
| 20260503052605 | 15 | 0.0 | 1.6 | 0.00 | 0.00 | 0.00 | 82 | 1014.2 | |
| 20260503051543 | 16 | 0.0 | 0.0 | 0.00 | 0.00 | 0.00 | 81 | 1014.4 | |
| 20260503050622 | 16 | 0.0 | 0.0 | 0.00 | 0.00 | 0.00 | 81 | 1014.9 | |
| 20260503045601 | 15 | 0.0 | 0.0 | 0.00 | 0.00 | 0.00 | 82 | 1014.9 | |
| 20260503044539 | 15 | 0.0 | 0.0 | 0.00 | 0.00 | 0.00 | 82 | 1014.6 | |
| 20260503043538 | 15 | 0.0 | 0.0 | 0.00 | 0.00 | 0.00 | 82 | 1014.5 | |
| 20260503042537 | 15 | 0.0 | 0.0 | 0.00 | 0.00 | 0.00 | 82 | 1014.6 | |
| 20260503041535 | 16 | 0.0 | 0.0 | 0.00 | 0.00 | 0.00 | 81 | 1014.8 | |
| 20260503040534 | 16 | 0.0 | 0.0 | 0.00 | 0.00 | 0.00 | 81 | 1014.8 | |
| 20260503035532 | 16 | 0.0 | 0.0 | 0.00 | 0.00 | 0.00 | 79 | 1014.7 | |
| 20260503034531 | 16 | 0.0 | 0.0 | 0.00 | 0.00 | 0.00 | 78 | 1014.5 | |
| 20260503033529 | 16 | 0.0 | 0.0 | 0.00 | 0.00 | 0.00 | 78 | 1014.5 | |
| 20260503032529 | 17 | 0.0 | 0.0 | 0.00 | 0.00 | 0.00 | 77 | 1014.4 | |
| 20260503031527 | 17 | 0.0 | 0.0 | 0.00 | 0.00 | 0.00 | 76 | 1014.3 | |
| 20260503030526 | 17 | 0.0 | 1.6 | 0.00 | 0.00 | 0.00 | 74 | 1014.4 | |
| 20260503025524 | 17 | 0.0 | 0.0 | 0.00 | 0.00 | 0.00 | 73 | 1014.6 | |
| 20260503024523 | 17 | 0.0 | 3.2 | 0.00 | 0.00 | 0.00 | 73 | 1014.6 | |
| 20260503023521 | 18 | 181 | 1.6 | 4.8 | 0.00 | 0.00 | 0.00 | 72 | 1014.6 |
| 20260503022519 | 18 | 143 | 3.2 | 6.4 | 0.00 | 0.00 | 0.00 | 71 | 1014.7 |
| 20260503021518 | 19 | 210 | 3.2 | 6.4 | 0.00 | 0.00 | 0.00 | 67 | 1014.7 |
| 20260503020517 | 20 | 152 | 1.6 | 4.8 | 0.00 | 0.00 | 0.00 | 65 | 1014.2 |
| 20260503015615 | 20 | 231 | 1.6 | 3.2 | 0.00 | 0.00 | 0.00 | 65 | 1013.8 |
| 20260503014613 | 21 | 168 | 3.2 | 4.8 | 0.00 | 0.00 | 0.00 | 63 | 1013.7 |
| 20260503013612 | 21 | 0.0 | 3.2 | 0.00 | 0.00 | 0.00 | 62 | 1013.6 | |
| 20260503012611 | 21 | 145 | 1.6 | 3.2 | 0.00 | 0.00 | 0.00 | 60 | 1013.4 |
| 20260503011630 | 21 | 102 | 0.0 | 3.2 | 0.00 | 0.00 | 0.00 | 58 | 1013.4 |
| 20260503010608 | 22 | 110 | 0.0 | 4.8 | 0.00 | 0.00 | 0.00 | 57 | 1013.5 |
| 20260503005607 | 23 | 94 | 1.6 | 3.2 | 0.00 | 0.00 | 0.00 | 55 | 1013.5 |
| 20260503004606 | 22 | 97 | 0.0 | 3.2 | 0.00 | 0.00 | 0.00 | 55 | 1013.5 |
| 20260503003604 | 22 | 175 | 0.0 | 4.8 | 0.00 | 0.00 | 0.00 | 55 | 1013.4 |
| 20260503002603 | 22 | 78 | 0.0 | 3.2 | 0.00 | 0.00 | 0.00 | 55 | 1013.4 |
| 20260503001622 | 22 | 0.0 | 1.6 | 0.00 | 0.00 | 0.00 | 56 | 1013.5 | |
| 20260503000601 | 22 | 155 | 1.6 | 4.8 | 0.00 | 0.00 | 0.00 | 56 | 1013.6 |
| 20260502235619 | 22 | 125 | 3.2 | 8.0 | 0.00 | 0.00 | 0.00 | 56 | 1013.5 |
| 20260502234558 | 22 | 99 | 3.2 | 3.2 | 0.00 | 0.00 | 0.00 | 56 | 1013.7 |
| 20260502233557 | 21 | 0.0 | 3.2 | 0.00 | 0.00 | 0.00 | 56 | 1013.7 | |
| 20260502232555 | 21 | 143 | 1.6 | 4.8 | 0.00 | 0.00 | 0.00 | 57 | 1014.0 |
| 20260502231614 | 21 | 144 | 1.6 | 4.8 | 0.00 | 0.00 | 0.00 | 57 | 1014.0 |
| 20260502230553 | 21 | 129 | 1.6 | 3.2 | 0.00 | 0.00 | 0.00 | 57 | 1014.1 |
| 20260502225550 | 21 | 181 | 4.8 | 4.8 | 0.00 | 0.00 | 0.00 | 56 | 1014.2 |
| 20260502224549 | 20 | 163 | 0.0 | 3.2 | 0.00 | 0.00 | 0.00 | 58 | 1014.4 |
| 20260502223547 | 20 | 190 | 1.6 | 3.2 | 0.00 | 0.00 | 0.00 | 57 | 1014.6 |
| 20260502222545 | 21 | 120 | 1.6 | 4.8 | 0.00 | 0.00 | 0.00 | 56 | 1014.7 |
| 20260502221545 | 21 | 132 | 3.2 | 6.4 | 0.00 | 0.00 | 0.00 | 56 | 1014.8 |
| 20260502220603 | 20 | 164 | 3.2 | 4.8 | 0.00 | 0.00 | 0.00 | 58 | 1015.1 |
| 20260502215541 | 20 | 177 | 3.2 | 6.4 | 0.00 | 0.00 | 0.00 | 57 | 1015.2 |
| 20260502214540 | 20 | 177 | 1.6 | 6.4 | 0.00 | 0.00 | 0.00 | 57 | 1015.2 |
| 20260502213539 | 21 | 0.0 | 3.2 | 0.00 | 0.00 | 0.00 | 57 | 1015.3 | |
| 20260502212538 | 19 | 104 | 1.6 | 3.2 | 0.00 | 0.00 | 0.00 | 61 | 1015.5 |
| 20260502211537 | 18 | 136 | 1.6 | 4.8 | 0.00 | 0.00 | 0.00 | 63 | 1015.7 |
| 20260502210535 | 18 | 124 | 1.6 | 8.0 | 0.00 | 0.00 | 0.00 | 63 | 1015.9 |
| 20260502205534 | 18 | 140 | 1.6 | 6.4 | 0.00 | 0.00 | 0.00 | 62 | 1016.0 |
| 20260502204553 | 17 | 141 | 1.6 | 4.8 | 0.00 | 0.00 | 0.00 | 64 | 1016.2 |